TimeEDT,TemperatureF,Dew PointF,Humidity,Sea Level PressureIn,VisibilityMPH,Wind Direction,Wind SpeedMPH,Gust SpeedMPH,PrecipitationIn,Events,Conditions,WindDirDegrees,DateUTC
12:54 AM,61.0,55.0,81,30.27,10.0,Calm,Calm,-,N/A,,Unknown,0,2013-06-22 04:54:00
1:54 AM,57.9,55.0,90,30.27,10.0,Calm,Calm,-,N/A,,Unknown,0,2013-06-22 05:54:00
2:54 AM,57.0,55.0,93,30.26,10.0,Calm,Calm,-,N/A,,Unknown,0,2013-06-22 06:54:00
3:54 AM,57.9,55.9,93,30.26,10.0,Calm,Calm,-,N/A,,Unknown,0,2013-06-22 07:54:00
4:54 AM,57.0,55.0,93,30.26,7.0,Calm,Calm,-,N/A,,Unknown,0,2013-06-22 08:54:00
5:54 AM,55.9,54.0,93,30.27,5.0,Calm,Calm,-,N/A,,Mist,0,2013-06-22 09:54:00
6:54 AM,60.1,57.9,93,30.27,10.0,Calm,Calm,-,N/A,,Unknown,0,2013-06-22 10:54:00
7:54 AM,64.9,60.1,84,30.26,10.0,Calm,Calm,-,N/A,,Unknown,0,2013-06-22 11:54:00
8:54 AM,69.1,63.0,81,30.27,10.0,Calm,Calm,-,N/A,,Partly Cloudy,0,2013-06-22 12:54:00
9:54 AM,73.0,63.0,71,30.27,10.0,Variable,3.5,-,N/A,,Clear,0,2013-06-22 13:54:00
10:54 AM,75.9,63.0,64,30.26,10.0,Calm,Calm,-,N/A,,Partly Cloudy,0,2013-06-22 14:54:00
11:54 AM,79.0,61.0,54,30.25,10.0,Variable,4.6,-,N/A,,Clear,0,2013-06-22 15:54:00
12:54 PM,81.0,57.9,45,30.25,10.0,West,3.5,-,N/A,,Clear,270,2013-06-22 16:54:00
1:54 PM,82.0,60.1,47,30.25,10.0,Variable,3.5,-,N/A,,Partly Cloudy,0,2013-06-22 17:54:00
2:54 PM,82.9,61.0,47,30.22,10.0,Variable,3.5,-,N/A,,Clear,0,2013-06-22 18:54:00
3:54 PM,84.0,61.0,46,30.19,10.0,Variable,4.6,-,N/A,,Clear,0,2013-06-22 19:54:00
4:54 PM,84.0,63.0,49,30.17,10.0,South,3.5,-,N/A,,Clear,190,2013-06-22 20:54:00
5:54 PM,84.0,63.0,49,30.15,10.0,Variable,5.8,-,N/A,,Clear,0,2013-06-22 21:54:00
6:54 PM,81.0,63.0,54,30.13,10.0,Variable,3.5,-,N/A,,Clear,0,2013-06-22 22:54:00
7:54 PM,77.0,64.0,64,30.14,10.0,Variable,4.6,-,N/A,,Clear,0,2013-06-22 23:54:00
8:54 PM,73.0,60.1,64,30.16,10.0,Variable,4.6,-,N/A,,Clear,0,2013-06-23 00:54:00
9:54 PM,70.0,59.0,68,30.19,10.0,Variable,3.5,-,N/A,,Clear,0,2013-06-23 01:54:00
10:54 PM,68.0,59.0,73,30.19,10.0,Calm,Calm,-,N/A,,Clear,0,2013-06-23 02:54:00
11:54 PM,68.0,55.9,65,30.19,10.0,Calm,Calm,-,N/A,,Clear,0,2013-06-23 03:54:00